カタログに戻る

THORAD AGENA D DEB

運用中LEO
NORAD 20360·DEBRIS·🇺🇸 United States

打ち上げ Apr 8, 1970 から Vandenberg Space Force Base

Loading…

次のパス (今後24時間)

TLE

最新Source: Space-Track

元期: Sep 13, 2026, 10:02 UTC

1 20360U 70025QF  26256.41805985  .00006119  00000-0  29470-2 0  9997
2 20360 100.4150 229.4858 0029364 356.5852 156.8076 14.18951474844991

AllMySatでTHORAD AGENA D DEBをリアルタイム追跡

Download on the App Store